This demonstration page uses our WeatherBlox Daily Observations layout. Learn more.

Left ArrowRight Arrow

Hourly Observations for January 22, 2016

Temp ( °F °C ) Dew Point ( °F °C ) Humidity (%) Winds ( mph kmh ) Pressure ( in mb ) Visibility ( mi km ) Precip ( " mm )
12:54 am 00:54 Cloudy with Mist and Fog 26 -3.3 23 -5 88 88 N 6 9 30.40 1029 5 8 0.00 0.00
1:28 am 01:28 Cloudy with Mist and Fog 26 -3.3 24 -4.4 92 92 N 8 13 30.39 1029 4 6 0.00 0.00
1:35 am 01:35 Cloudy with Mist and Fog 26 -3.3 24 -4.4 92 92 N 6 9 30.42 1030 3 5 0.00 0.00
1:54 am 01:54 Cloudy with Mist and Fog 26 -3.3 24 -4.4 92 92 NNW 14 22 30.39 1029 3 5 0.00 0.00
2:16 am 02:16 Cloudy with Mist and Fog 27 -3 25 -4 93 93 N 15 24 30.42 1030 3 4 0.00 0.00
2:27 am 02:27 Cloudy with Mist and Fog 25 -4 23 -5 93 93 N 15 24 30.42 1030 3 5 0.00 0.00
2:43 am 02:43 Cloudy with Mist and Fog 25 -4 23 -5 93 93 N 14 22 30.42 1030 3 4 0.00 0.00
2:54 am 02:54 Cloudy with Mist and Fog 25 -3.9 23 -5 92 92 N 16 26 30.40 1029 3 5 0.00 0.00
3:54 am 03:54 Cloudy with Mist and Fog 24 -4.4 22 -5.6 91 91 N 14 22 30.40 1029 4 6 0.00 0.00
4:54 am 04:54 Cloudy with Mist and Fog 23 -5 20 -6.7 88 88 NNW 14 22 30.41 1030 5 8 0.00 0.00
5:49 am 05:49 Cloudy 23 -5 19 -7 86 86 N 12 19 30.48 1032 7 11 0.00 0.00
5:54 am 05:54 Cloudy 23 -5 19 -7.2 85 85 N 12 19 30.42 1030 7 11 0.00 0.00
6:30 am 06:30 Cloudy with Mist and Fog 23 -5 20 -6.7 88 88 N 12 19 30.48 1032 6 10 0.00 0.00
6:54 am 06:54 Cloudy with Mist and Fog 23 -5 20 -6.7 88 88 N 12 19 30.43 1031 5 8 0.00 0.00
7:49 am 07:49 Cloudy with Mist and Fog 23 -5 19 -7 86 86 N 12 19 30.48 1032 6 10 0.00 0.00
7:54 am 07:54 Cloudy with Mist and Fog 23 -5 19 -7.2 85 85 N 12 19 30.45 1031 6 10 0.00 0.00
8:54 am 08:54 Cloudy with Mist and Fog 23 -5 19 -7.2 85 85 N 13 20 30.47 1032 5 8 0.00 0.00
9:54 am 09:54 Cloudy with Haze 24 -4.4 19 -7.2 81 81 N 14 22 30.48 1032 5 8 0.00 0.00
10:30 am 10:30 Cloudy with Haze 25 -4 19 -7 80 80 N 13 20 30.48 1032 6 10 0.00 0.00
10:44 am 10:44 Cloudy with Haze 25 -3.9 19 -7.2 78 78 N 10 17 30.48 1032 6 10 0.00 0.00
10:52 am 10:52 Cloudy with Haze 25 -4 19 -7 80 80 N 13 20 30.48 1032 5 8 0.00 0.00
10:54 am 10:54 Cloudy with Haze 25 -3.9 19 -7.2 78 78 N 10 17 30.48 1032 5 8 0.00 0.00
11:37 am 11:37 Cloudy with Haze 25 -3.9 19 -7.2 78 78 NNE 9 15 30.48 1032 6 10 0.00 0.00
11:54 am 11:54 Cloudy with Haze 26 -3.3 19 -7.2 75 75 N 9 15 30.47 1032 6 10 0.00 0.00
12:54 pm 12:54 Cloudy 26 -3.3 18 -7.8 71 71 NNE 10 17 30.45 1031 8 13 0.00 0.00
1:54 pm 13:54 Cloudy 27 -2.8 19 -7.2 72 72 NNW 9 15 30.42 1030 8 13 0.00 0.00
2:35 pm 14:35 Cloudy 26 -3.3 19 -7.2 75 75 N 12 19 30.45 1031 7 11 0.00 0.00
2:54 pm 14:54 Cloudy 26 -3.3 19 -7.2 75 75 N 9 15 30.43 1031 7 11 0.00 0.00
3:54 pm 15:54 Cloudy with Haze 26 -3.3 19 -7.2 75 75 N 10 17 30.42 1030 6 10 0.00 0.00
4:54 pm 16:54 Cloudy with Haze 25 -3.9 19 -7.2 78 78 NNE 5 7 30.42 1030 6 10 0.00 0.00
5:54 pm 17:54 Cloudy 23 -5 18 -7.8 81 81 NE 5 7 30.42 1030 7 11 0.00 0.00
6:09 pm 18:09 Cloudy 23 -5 18 -7.8 81 81 NE 5 7 30.45 1031 7 11 0.00 0.00
6:54 pm 18:54 Cloudy 23 -5 18 -7.8 81 81 ENE 6 9 30.42 1030 7 11 0.00 0.00
7:36 pm 19:36 Cloudy with Mist and Fog 21 -6 18 -8 86 86 ENE 6 9 30.45 1031 6 10 0.00 0.00
7:54 pm 19:54 Cloudy with Mist and Fog 22 -5.6 18 -7.8 85 85 ENE 7 11 30.41 1030 6 10 0.00 0.00
8:54 pm 20:54 Cloudy with Mist and Fog 22 -5.6 18 -7.8 85 85 E 6 9 30.40 1030 6 10 0.00 0.00
9:45 pm 21:45 Cloudy with Mist and Fog 22 -5.6 18 -7.8 85 85 ESE 5 7 30.45 1031 6 10 0.00 0.00
9:54 pm 21:54 Cloudy with Mist and Fog 22 -5.6 18 -7.8 85 85 ESE 5 7 30.40 1029 5 8 0.00 0.00
10:54 pm 22:54 Cloudy with Mist and Fog 23 -5 19 -7.2 85 85 S 3 6 30.39 1029 6 10 0.00 0.00
11:54 pm 23:54 Cloudy with Mist and Fog 23 -5 19 -7.2 85 85 SSE 6 9 30.38 1029 6 10 0.00 0.00

Powered by AerisWeather